Météo par heure à Alia

Ce jour, 24 Octobre, Samedi

Heure Température Précipitation Vent Pression Humidité
00:00 +15°C° 0 mm 1 m/s 712 mmHg 77%
01:00 +15°C° 0 mm 1 m/s 712 mmHg 78%
02:00 +15°C° 0 mm 1 m/s 712 mmHg 80%
03:00 +15°C° 0 mm 1 m/s 711 mmHg 82%
04:00 +15°C° 0 mm 1 m/s 711 mmHg 84%
05:00 +15°C° 0 mm 1 m/s 711 mmHg 84%
06:00 +15°C° 0 mm 1 m/s 711 mmHg 83%
07:00 +16°C° 0 mm 1 m/s 711 mmHg 83%
08:00 +18°C° 0 mm 1 m/s 712 mmHg 75%
09:00 +19°C° 0 mm 2 m/s 712 mmHg 68%
10:00 +21°C° 0 mm 2 m/s 713 mmHg 60%
11:00 +21°C° 0 mm 3 m/s 713 mmHg 59%
12:00 +22°C° 0 mm 3 m/s 712 mmHg 58%
13:00 +22°C° 0 mm 4 m/s 712 mmHg 57%
14:00 +21°C° 0 mm 3 m/s 712 mmHg 60%
15:00 +21°C° 0 mm 3 m/s 712 mmHg 63%
16:00 +20°C° 0 mm 3 m/s 712 mmHg 66%
17:00 +19°C° 0 mm 2 m/s 711 mmHg 72%
18:00 +18°C° 0 mm 2 m/s 711 mmHg 79%
19:00 +17°C° 0 mm 2 m/s 711 mmHg 85%
20:00 +16°C° 0 mm 2 m/s 711 mmHg 87%
21:00 +16°C° 0 mm 2 m/s 711 mmHg 89%
22:00 +15°C° 0 mm 2 m/s 711 mmHg 90%
23:00 +15°C° 0 mm 2 m/s 711 mmHg 90%

Demain, 25 Octobre, Dimanche

Heure Température Précipitation Vent Pression Humidité
00:00 +14°C° 0 mm 1 m/s 711 mmHg 89%
01:00 +14°C° 0 mm 1 m/s 711 mmHg 89%
02:00 +13°C° 0 mm 1 m/s 711 mmHg 89%
03:00 +13°C° 0 mm 2 m/s 710 mmHg 88%
04:00 +13°C° 0 mm 2 m/s 710 mmHg 88%
05:00 +13°C° 0 mm 1 m/s 710 mmHg 87%
06:00 +13°C° 0 mm 1 m/s 710 mmHg 86%
07:00 +13°C° 0 mm 1 m/s 710 mmHg 85%
08:00 +14°C° 0 mm 2 m/s 711 mmHg 74%
09:00 +16°C° 0 mm 2 m/s 711 mmHg 63%
10:00 +18°C° 0 mm 3 m/s 711 mmHg 51%
11:00 +19°C° 0 mm 3 m/s 711 mmHg 48%
12:00 +19°C° 0 mm 3 m/s 711 mmHg 45%
13:00 +20°C° 0 mm 4 m/s 711 mmHg 41%
14:00 +19°C° 0 mm 3 m/s 711 mmHg 46%
15:00 +19°C° 0 mm 3 m/s 711 mmHg 50%
16:00 +18°C° 0 mm 3 m/s 710 mmHg 54%
17:00 +17°C° 0 mm 2 m/s 710 mmHg 62%
18:00 +15°C° 0 mm 2 m/s 710 mmHg 69%
19:00 +14°C° 0 mm 1 m/s 710 mmHg 76%
20:00 +14°C° 0 mm 1 m/s 710 mmHg 78%
21:00 +13°C° 0 mm 1 m/s 710 mmHg 80%
22:00 +13°C° 0 mm 1 m/s 710 mmHg 81%
23:00 +12°C° 0 mm 1 m/s 710 mmHg 82%

Après-demain, 26 Octobre, Lundi

Heure Température Précipitation Vent Pression Humidité
00:00 +12°C° 0 mm 1 m/s 710 mmHg 82%
01:00 +12°C° 0 mm 1 m/s 710 mmHg 82%
02:00 +12°C° 0 mm 1 m/s 710 mmHg 81%
03:00 +11°C° 0 mm 1 m/s 709 mmHg 80%
04:00 +11°C° 0 mm 1 m/s 709 mmHg 78%
05:00 +11°C° 0 mm 1 m/s 709 mmHg 76%
06:00 +11°C° 0 mm 1 m/s 709 mmHg 74%
07:00 +11°C° 0 mm 1 m/s 709 mmHg 72%
08:00 +13°C° 0 mm 1 m/s 710 mmHg 63%
09:00 +16°C° 0 mm 1 m/s 710 mmHg 53%
10:00 +19°C° 0 mm 1 m/s 711 mmHg 43%
11:00 +20°C° 0 mm 1 m/s 710 mmHg 41%
12:00 +20°C° 0 mm 2 m/s 710 mmHg 39%
13:00 +21°C° 0 mm 2 m/s 710 mmHg 37%
14:00 +20°C° 0 mm 2 m/s 710 mmHg 43%
15:00 +20°C° 0 mm 3 m/s 709 mmHg 49%
16:00 +19°C° 0 mm 3 m/s 709 mmHg 55%
17:00 +18°C° 0 mm 2 m/s 709 mmHg 64%
18:00 +16°C° 0 mm 2 m/s 708 mmHg 74%
19:00 +15°C° 0 mm 1 m/s 708 mmHg 84%
20:00 +15°C° 0 mm 1 m/s 708 mmHg 86%
21:00 +14°C° 0 mm 1 m/s 708 mmHg 88%
22:00 +14°C° 0 mm 2 m/s 708 mmHg 91%
23:00 +14°C° 0 mm 2 m/s 708 mmHg 91%

, 27 Octobre, Mardi

Heure Température Précipitation Vent Pression Humidité
00:00 +14°C° 0 mm 2 m/s 707 mmHg 90%
01:00 +15°C° 0 mm 2 m/s 707 mmHg 90%
02:00 +15°C° 0 mm 2 m/s 707 mmHg 91%
03:00 +15°C° 0 mm 2 m/s 707 mmHg 91%
04:00 +15°C° 0 mm 2 m/s 707 mmHg 92%
05:00 +15°C° 0 mm 2 m/s 707 mmHg 92%
06:00 +15°C° 0 mm 1 m/s 707 mmHg 92%
07:00 +14°C° 0 mm 1 m/s 707 mmHg 92%
08:00 +15°C° 0.9 mm 2 m/s 707 mmHg 89%
09:00 +15°C° 0.9 mm 2 m/s 707 mmHg 86%
10:00 +16°C° 0.9 mm 3 m/s 708 mmHg 82%
11:00 +16°C° 0.9 mm 3 m/s 708 mmHg 78%
12:00 +16°C° 0.9 mm 3 m/s 707 mmHg 74%
13:00 +16°C° 0.9 mm 3 m/s 707 mmHg 70%
14:00 +14°C° 1.2 mm 3 m/s 707 mmHg 70%
15:00 +14°C° 1.2 mm 3 m/s 707 mmHg 71%
16:00 +13°C° 1.2 mm 3 m/s 707 mmHg 71%
17:00 +13°C° 0.2 mm 4 m/s 707 mmHg 74%
18:00 +12°C° 0.2 mm 4 m/s 707 mmHg 78%
19:00 +11°C° 0.2 mm 4 m/s 707 mmHg 82%
20:00 +11°C° 0.1 mm 4 m/s 707 mmHg 82%
21:00 +10°C° 0.1 mm 4 m/s 707 mmHg 82%
22:00 +10°C° 0.1 mm 3 m/s 707 mmHg 82%
23:00 +10°C° 0.1 mm 3 m/s 707 mmHg 82%

27 Octobre, Mardi

Heure Température Précipitation Vent Pression Humidité
00:00 +14°C° 0 mm 2 m/s 707 mmHg 90%
01:00 +15°C° 0 mm 2 m/s 707 mmHg 90%
02:00 +15°C° 0 mm 2 m/s 707 mmHg 91%
03:00 +15°C° 0 mm 2 m/s 707 mmHg 91%
04:00 +15°C° 0 mm 2 m/s 707 mmHg 92%
05:00 +15°C° 0 mm 2 m/s 707 mmHg 92%
06:00 +15°C° 0 mm 1 m/s 707 mmHg 92%
07:00 +14°C° 0 mm 1 m/s 707 mmHg 92%
08:00 +15°C° 0.9 mm 2 m/s 707 mmHg 89%
09:00 +15°C° 0.9 mm 2 m/s 707 mmHg 86%
10:00 +16°C° 0.9 mm 3 m/s 708 mmHg 82%
11:00 +16°C° 0.9 mm 3 m/s 708 mmHg 78%
12:00 +16°C° 0.9 mm 3 m/s 707 mmHg 74%
13:00 +16°C° 0.9 mm 3 m/s 707 mmHg 70%
14:00 +14°C° 1.2 mm 3 m/s 707 mmHg 70%
15:00 +14°C° 1.2 mm 3 m/s 707 mmHg 71%
16:00 +13°C° 1.2 mm 3 m/s 707 mmHg 71%
17:00 +13°C° 0.2 mm 4 m/s 707 mmHg 74%
18:00 +12°C° 0.2 mm 4 m/s 707 mmHg 78%
19:00 +11°C° 0.2 mm 4 m/s 707 mmHg 82%
20:00 +11°C° 0.1 mm 4 m/s 707 mmHg 82%
21:00 +10°C° 0.1 mm 4 m/s 707 mmHg 82%
22:00 +10°C° 0.1 mm 3 m/s 707 mmHg 82%
23:00 +10°C° 0.1 mm 3 m/s 707 mmHg 82%

28 Octobre, Mercredi

Heure Température Précipitation Vent Pression Humidité
00:00 +10°C° 0.1 mm 3 m/s 707 mmHg 82%
01:00 +10°C° 0.1 mm 2 m/s 707 mmHg 82%
02:00 +9°C° 0.1 mm 2 m/s 707 mmHg 83%
03:00 +9°C° 0.1 mm 2 m/s 707 mmHg 84%
04:00 +9°C° 0.1 mm 2 m/s 706 mmHg 84%
05:00 +9°C° 0 mm 2 m/s 707 mmHg 85%
06:00 +9°C° 0 mm 2 m/s 707 mmHg 85%
07:00 +9°C° 0 mm 2 m/s 707 mmHg 86%
08:00 +11°C° 0 mm 3 m/s 707 mmHg 77%
09:00 +12°C° 0 mm 4 m/s 708 mmHg 69%
10:00 +14°C° 0 mm 5 m/s 709 mmHg 60%
11:00 +14°C° 0.1 mm 5 m/s 709 mmHg 60%
12:00 +15°C° 0.1 mm 5 m/s 709 mmHg 59%
13:00 +15°C° 0.1 mm 5 m/s 709 mmHg 59%
14:00 +15°C° 0.1 mm 5 m/s 709 mmHg 61%
15:00 +14°C° 0.1 mm 5 m/s 709 mmHg 63%
16:00 +14°C° 0.1 mm 5 m/s 709 mmHg 65%
17:00 +13°C° 0 mm 4 m/s 709 mmHg 70%
18:00 +12°C° 0 mm 3 m/s 709 mmHg 75%
19:00 +11°C° 0 mm 3 m/s 709 mmHg 80%
20:00 +12°C° 0 mm 2 m/s 710 mmHg 80%
21:00 +10°C° 0 mm 2 m/s 710 mmHg 80%
22:00 +10°C° 0 mm 2 m/s 710 mmHg 80%
23:00 +10°C° 0 mm 2 m/s 710 mmHg 80%

29 Octobre, Jeudi

Heure Température Précipitation Vent Pression Humidité
00:00 +10°C° 0 mm 2 m/s 710 mmHg 80%
01:00 +9°C° 0 mm 2 m/s 710 mmHg 80%
02:00 +9°C° 0 mm 2 m/s 710 mmHg 80%
03:00 +9°C° 0 mm 2 m/s 710 mmHg 80%
04:00 +9°C° 0 mm 2 m/s 710 mmHg 80%
05:00 +9°C° 0 mm 2 m/s 711 mmHg 81%
06:00 +10°C° 0 mm 1 m/s 711 mmHg 82%
07:00 +11°C° 0 mm 1 m/s 711 mmHg 82%
08:00 +12°C° 0 mm 2 m/s 712 mmHg 76%
09:00 +14°C° 0 mm 2 m/s 712 mmHg 70%
10:00 +16°C° 0 mm 2 m/s 713 mmHg 64%
11:00 +16°C° 0 mm 2 m/s 713 mmHg 60%
12:00 +17°C° 0 mm 2 m/s 713 mmHg 56%
13:00 +18°C° 0 mm 2 m/s 713 mmHg 52%
14:00 +17°C° 0 mm 2 m/s 713 mmHg 53%
15:00 +17°C° 0 mm 2 m/s 713 mmHg 54%
16:00 +17°C° 0 mm 2 m/s 713 mmHg 55%
17:00 +15°C° 0 mm 2 m/s 713 mmHg 62%
18:00 +14°C° 0 mm 1 m/s 713 mmHg 68%
19:00 +13°C° 0 mm 1 m/s 713 mmHg 74%
20:00 +12°C° 0 mm 1 m/s 714 mmHg 73%
21:00 +12°C° 0 mm 1 m/s 714 mmHg 71%
22:00 +12°C° 0 mm 1 m/s 714 mmHg 69%
23:00 +12°C° 0 mm 1 m/s 714 mmHg 67%
Voir plus

Nous avons besoin de votre consentement

Meteoprog et ses fournisseurs de services peuvent stocker et accéder à des données personnelles telles que des cookies, des identifiants d'appareils ou d'autres technologies similaires sur votre appareil et traiter ces données pour personnaliser le contenu et les publicités, ainsi que pour fournir des fonctionnalités de médias sociaux et analyser le trafic.

  • Stocker et/ou accéder à des informations sur votre appareil

    Des cookies, des identifiants d'appareils ou d'autres informations peuvent être stockés ou accessibles sur votre appareil aux fins indiquées ci-dessus.

  • Annonces et contenus personnalisés, mesure des annonces et des contenus, connaissance de l'audience et développement de produits

    Les annonces et le contenu peuvent être personnalisés en fonction d'un profil. D'autres données peuvent être ajoutées pour mieux personnaliser les annonces et le contenu. Les performances des publicités et du contenu peuvent être mesurées. Il est possible d'obtenir des informations sur le public qui a vu les publicités et le contenu. Ces données peuvent être utilisées pour développer ou améliorer l'expérience de l'utilisateur, les systèmes et les logiciels.

En cliquant sur "J'accepte", vous autorisez l'utilisation de cookies, des identifiants d'appareils, des balises web ou d'autres technologies similaires. Vos paramètres peuvent être modifiés dans le navigateur de votre appareil.

Dans certains cas, des intérêts légitimes peuvent être invoqués plutôt qu'un consentement. Vous pouvez en savoir plus à ce sujet dans notre Politique de confidentialité et de cookies.